Location: Batang Balui
(2.7000°N, 113.7833°E)
Time: 22:47:11
(UTC+00:00)

Cosmos 1470 Rocket - Pass Details

Date: 03 December 2021
Orbit: 603 x 634 km, 82.5° (Epoch: 27 January)

Event Time Altitude Azimuth Distance (km) Brightness Sun altitude
Exits shadow 11:27:02 13° 8° (N) 1,792 5.6 -17.7°
Maximum altitude 11:30:53 59° 86° (E) 730 3.6 -18.6°
Drops below altitude 10° 11:35:16 10° 166° (SSE) 2,013 6.3 -19.6°
Sets 11:37:32 0° 169° (S) 2,920 7.2 -20.2°
